Location: Geseke
(51.6397°N, 8.5105°E)
Time: 15:19:20
(UTC+02:00)

ISS - Pass Details

Date: 29 June 2021
Orbit: 419 x 421 km, 51.6° (Epoch: 31 July)

Event Time Altitude Azimuth Distance (km) Brightness Sun altitude
Exits shadow 04:12:36 - 182° (S) 1,876 -1.0 -7.0°
Reaches altitude 10° 04:14:14 10° 162° (SSE) 1,497 -1.3 -6.9°
Maximum altitude 04:15:35 12° 138° (SE) 1,383 -1.2 -6.8°
Drops below altitude 10° 04:16:56 10° 114° (ESE) 1,501 -0.8 -6.6°
Sets 04:20:05 0° 82° (E) 2,369 0.9 -6.3°
